• In Netherlands
  • List of Countries
  • For 7 days
  • Water Temperature
  • Satellite Maps
  • Weather Map
  • Weather Widgets
  • user-avatar
    Login

    Hourly Weather Byala

    Today, 21 July, Friday

    Time Temperature Precipitation Wind Pressure Humidity
    00:00 +21°C° 0 mm 1 mps 750 mmHg 69%
    01:00 +19°C° 0 mm 2 mps 750 mmHg 68%
    02:00 +19°C° 0 mm 2 mps 750 mmHg 64%
    03:00 +19°C° 0 mm 2 mps 750 mmHg 64%
    04:00 +18°C° 0 mm 2 mps 750 mmHg 63%
    05:00 +18°C° 0 mm 2 mps 750 mmHg 62%
    06:00 +21°C° 0 mm 3 mps 750 mmHg 55%
    07:00 +24°C° 0 mm 3 mps 750 mmHg 48%
    08:00 +27°C° 0 mm 3 mps 751 mmHg 41%
    09:00 +28°C° 0 mm 3 mps 751 mmHg 36%
    10:00 +30°C° 0 mm 3 mps 751 mmHg 32%
    11:00 +32°C° 0 mm 4 mps 751 mmHg 28%
    12:00 +33°C° 0 mm 4 mps 751 mmHg 27%
    13:00 +34°C° 0 mm 4 mps 751 mmHg 26%
    14:00 +34°C° 0 mm 5 mps 751 mmHg 26%
    15:00 +34°C° 0 mm 5 mps 751 mmHg 27%
    16:00 +33°C° 0 mm 4 mps 750 mmHg 29%
    17:00 +32°C° 0 mm 4 mps 750 mmHg 31%
    18:00 +29°C° 0 mm 4 mps 750 mmHg 39%
    19:00 +26°C° 0 mm 3 mps 751 mmHg 46%
    20:00 +24°C° 0 mm 2 mps 751 mmHg 54%
    21:00 +23°C° 0 mm 2 mps 751 mmHg 57%
    22:00 +22°C° 0 mm 1 mps 751 mmHg 59%
    23:00 +21°C° 0 mm 1 mps 751 mmHg 61%

    Tomorrow, 22 July, Saturday

    Time Temperature Precipitation Wind Pressure Humidity
    00:00 +21°C° 0 mm 1 mps 751 mmHg 61%
    01:00 +21°C° 0 mm 1 mps 751 mmHg 60%
    02:00 +20°C° 0 mm 2 mps 751 mmHg 59%
    03:00 +19°C° 0 mm 2 mps 751 mmHg 59%
    04:00 +20°C° 0 mm 1 mps 751 mmHg 59%
    05:00 +20°C° 0 mm 1 mps 751 mmHg 59%
    06:00 +22°C° 0 mm 1 mps 751 mmHg 52%
    07:00 +25°C° 0 mm 1 mps 751 mmHg 45%
    08:00 +28°C° 0 mm 1 mps 751 mmHg 38%
    09:00 +30°C° 0 mm 1 mps 751 mmHg 34%
    10:00 +32°C° 0 mm 1 mps 751 mmHg 30%
    11:00 +33°C° 0 mm 1 mps 751 mmHg 26%
    12:00 +35°C° 0 mm 2 mps 751 mmHg 25%
    13:00 +35°C° 0 mm 3 mps 751 mmHg 24%
    14:00 +36°C° 0 mm 3 mps 751 mmHg 23%
    15:00 +35°C° 0 mm 3 mps 751 mmHg 25%
    16:00 +35°C° 0 mm 4 mps 751 mmHg 27%
    17:00 +34°C° 0 mm 4 mps 750 mmHg 29%
    18:00 +30°C° 0 mm 3 mps 750 mmHg 36%
    19:00 +28°C° 0 mm 3 mps 750 mmHg 43%
    20:00 +25°C° 0 mm 2 mps 750 mmHg 50%
    21:00 +24°C° 0 mm 2 mps 751 mmHg 53%
    22:00 +23°C° 0 mm 1 mps 751 mmHg 55%
    23:00 +23°C° 0 mm 1 mps 751 mmHg 58%

    Day after tomorrow, 23 July, Sunday

    Time Temperature Precipitation Wind Pressure Humidity
    00:00 +23°C° 0 mm 1 mps 751 mmHg 57%
    01:00 +22°C° 0 mm 1 mps 751 mmHg 57%
    02:00 +22°C° 0 mm 1 mps 751 mmHg 56%
    03:00 +22°C° 0 mm 1 mps 750 mmHg 56%
    04:00 +22°C° 0 mm 1 mps 750 mmHg 55%
    05:00 +20°C° 0 mm 0 mps 750 mmHg 55%
    06:00 +24°C° 0 mm 1 mps 750 mmHg 50%
    07:00 +26°C° 0 mm 1 mps 750 mmHg 44%
    08:00 +29°C° 0 mm 1 mps 751 mmHg 39%
    09:00 +30°C° 0 mm 1 mps 750 mmHg 36%
    10:00 +32°C° 0 mm 2 mps 750 mmHg 32%
    11:00 +35°C° 0 mm 3 mps 750 mmHg 29%
    12:00 +35°C° 0 mm 3 mps 750 mmHg 28%
    13:00 +36°C° 0 mm 3 mps 750 mmHg 27%
    14:00 +36°C° 0 mm 4 mps 750 mmHg 27%
    15:00 +35°C° 0 mm 4 mps 749 mmHg 29%
    16:00 +34°C° 0 mm 4 mps 749 mmHg 32%
    17:00 +33°C° 0 mm 4 mps 749 mmHg 35%
    18:00 +30°C° 0.1 mm 4 mps 749 mmHg 45%
    19:00 +27°C° 0.1 mm 3 mps 749 mmHg 55%
    20:00 +25°C° 0.1 mm 3 mps 749 mmHg 64%
    21:00 +24°C° 0 mm 2 mps 749 mmHg 69%
    22:00 +23°C° 0 mm 2 mps 749 mmHg 73%
    23:00 +23°C° 0 mm 2 mps 749 mmHg 77%

    24 July, Monday

    Time Temperature Precipitation Wind Pressure Humidity
    00:00 +22°C° 0 mm 1 mps 749 mmHg 77%
    01:00 +22°C° 0 mm 1 mps 749 mmHg 77%
    02:00 +22°C° 0 mm 1 mps 749 mmHg 77%
    03:00 +22°C° 0 mm 1 mps 749 mmHg 76%
    04:00 +22°C° 0 mm 1 mps 748 mmHg 75%
    05:00 +21°C° 0 mm 1 mps 748 mmHg 74%
    06:00 +24°C° 0 mm 1 mps 748 mmHg 65%
    07:00 +26°C° 0 mm 1 mps 748 mmHg 56%
    08:00 +29°C° 0 mm 1 mps 748 mmHg 47%
    09:00 +30°C° 0 mm 2 mps 748 mmHg 42%
    10:00 +33°C° 0 mm 3 mps 748 mmHg 37%
    11:00 +34°C° 0 mm 4 mps 748 mmHg 32%
    12:00 +35°C° 0 mm 4 mps 748 mmHg 31%
    13:00 +35°C° 0 mm 4 mps 747 mmHg 30%
    14:00 +35°C° 0 mm 4 mps 747 mmHg 29%
    15:00 +35°C° 0 mm 4 mps 747 mmHg 31%
    16:00 +34°C° 0 mm 4 mps 746 mmHg 33%
    17:00 +33°C° 0 mm 4 mps 746 mmHg 35%
    18:00 +30°C° 0 mm 4 mps 746 mmHg 43%
    19:00 +27°C° 0 mm 3 mps 746 mmHg 52%
    20:00 +25°C° 0 mm 3 mps 746 mmHg 61%
    21:00 +24°C° 0 mm 3 mps 746 mmHg 66%
    22:00 +22°C° 0 mm 3 mps 746 mmHg 72%
    23:00 +21°C° 0 mm 2 mps 746 mmHg 77%

    25 July, Tuesday

    Time Temperature Precipitation Wind Pressure Humidity
    00:00 +21°C° 0 mm 2 mps 745 mmHg 80%
    01:00 +21°C° 0 mm 2 mps 745 mmHg 84%
    02:00 +21°C° 0 mm 1 mps 745 mmHg 87%
    03:00 +21°C° 0 mm 1 mps 744 mmHg 86%
    04:00 +21°C° 0 mm 1 mps 744 mmHg 86%
    05:00 +21°C° 0 mm 1 mps 744 mmHg 86%
    06:00 +23°C° 0 mm 1 mps 744 mmHg 74%
    07:00 +26°C° 0 mm 2 mps 744 mmHg 62%
    08:00 +28°C° 0 mm 2 mps 744 mmHg 50%
    09:00 +30°C° 0 mm 3 mps 744 mmHg 45%
    10:00 +33°C° 0 mm 3 mps 744 mmHg 39%
    11:00 +35°C° 0 mm 4 mps 743 mmHg 34%
    12:00 +35°C° 0 mm 4 mps 743 mmHg 33%
    13:00 +35°C° 0 mm 5 mps 743 mmHg 33%
    14:00 +36°C° 0 mm 5 mps 743 mmHg 33%
    15:00 +35°C° 0 mm 5 mps 742 mmHg 36%
    16:00 +34°C° 0 mm 5 mps 742 mmHg 39%
    17:00 +33°C° 0 mm 5 mps 742 mmHg 42%
    18:00 +30°C° 0 mm 5 mps 742 mmHg 53%
    19:00 +27°C° 0 mm 4 mps 742 mmHg 64%
    20:00 +25°C° 0 mm 4 mps 742 mmHg 75%
    21:00 +24°C° 0 mm 3 mps 743 mmHg 80%
    22:00 +24°C° 0 mm 3 mps 743 mmHg 86%
    23:00 +22°C° 0 mm 3 mps 743 mmHg 91%

    26 July, Wednesday

    Time Temperature Precipitation Wind Pressure Humidity
    00:00 +22°C° 0 mm 3 mps 743 mmHg 92%
    01:00 +23°C° 0 mm 2 mps 743 mmHg 92%
    02:00 +21°C° 0 mm 2 mps 743 mmHg 93%
    03:00 +21°C° 0 mm 2 mps 743 mmHg 93%
    04:00 +21°C° 0 mm 2 mps 743 mmHg 93%
    05:00 +22°C° 0 mm 1 mps 743 mmHg 93%
    06:00 +24°C° 0 mm 2 mps 743 mmHg 83%
    07:00 +26°C° 0 mm 2 mps 743 mmHg 72%
    08:00 +28°C° 0 mm 2 mps 744 mmHg 62%
    09:00 +30°C° 0 mm 3 mps 744 mmHg 53%
    10:00 +33°C° 0 mm 3 mps 744 mmHg 45%
    11:00 +35°C° 0 mm 3 mps 744 mmHg 37%
    12:00 +36°C° 0 mm 4 mps 744 mmHg 36%
    13:00 +36°C° 0 mm 4 mps 743 mmHg 35%
    14:00 +37°C° 0 mm 5 mps 743 mmHg 33%
    15:00 +36°C° 0 mm 5 mps 743 mmHg 37%
    16:00 +34°C° 0 mm 5 mps 743 mmHg 40%
    17:00 +33°C° 0 mm 5 mps 743 mmHg 44%
    18:00 +30°C° 0 mm 5 mps 743 mmHg 56%
    19:00 +27°C° 0 mm 4 mps 743 mmHg 68%
    20:00 +25°C° 0 mm 3 mps 744 mmHg 80%
    21:00 +24°C° 0 mm 3 mps 744 mmHg 84%
    22:00 +23°C° 0 mm 2 mps 744 mmHg 87%
    23:00 +23°C° 0 mm 1 mps 744 mmHg 91%
    Show more